TimeEST,TemperatureF,Dew PointF,Humidity,Sea Level PressureIn,VisibilityMPH,Wind Direction,Wind SpeedMPH,Gust SpeedMPH,PrecipitationIn,Events,Conditions,WindDirDegrees,DateUTC
12:04 AM,35.6,33.8,93,29.46,5.0,Calm,Calm,-,N/A,,Overcast,0,2012-12-19 05:04:00
12:53 AM,35.1,33.1,92,29.49,6.0,Calm,Calm,-,N/A,,Overcast,0,2012-12-19 05:53:00
1:07 AM,37.4,33.8,87,29.48,9.0,West,3.5,-,N/A,,Overcast,280,2012-12-19 06:07:00
1:53 AM,37.0,34.0,89,29.51,10.0,Calm,Calm,-,N/A,,Overcast,0,2012-12-19 06:53:00
2:53 AM,37.0,34.0,89,29.52,10.0,Calm,Calm,-,N/A,,Overcast,0,2012-12-19 07:53:00
3:53 AM,37.0,33.1,86,29.54,10.0,NNE,5.8,-,N/A,,Overcast,20,2012-12-19 08:53:00
4:53 AM,36.0,33.1,89,29.55,10.0,Calm,Calm,-,N/A,,Overcast,0,2012-12-19 09:53:00
5:53 AM,37.0,30.9,79,29.58,10.0,Variable,3.5,-,N/A,,Overcast,0,2012-12-19 10:53:00
6:53 AM,36.0,30.9,82,29.61,10.0,NW,6.9,-,N/A,,Overcast,310,2012-12-19 11:53:00
7:53 AM,36.0,30.9,82,29.63,10.0,NW,5.8,-,N/A,,Overcast,320,2012-12-19 12:53:00
8:53 AM,37.0,32.0,82,29.66,10.0,Calm,Calm,-,N/A,,Overcast,0,2012-12-19 13:53:00
9:20 AM,37.4,32.0,81,29.65,10.0,WNW,4.6,-,N/A,,Overcast,300,2012-12-19 14:20:00
9:53 AM,39.0,32.0,76,29.68,10.0,Variable,4.6,-,N/A,,Overcast,0,2012-12-19 14:53:00
10:33 AM,39.2,30.2,70,29.66,10.0,NNW,6.9,-,N/A,,Overcast,340,2012-12-19 15:33:00
10:53 AM,39.0,30.0,70,29.69,10.0,NNW,6.9,-,N/A,,Overcast,340,2012-12-19 15:53:00
11:02 AM,39.2,30.2,70,29.67,10.0,NNW,11.5,-,N/A,,Overcast,340,2012-12-19 16:02:00
11:53 AM,39.9,30.0,68,29.71,10.0,NNW,8.1,-,N/A,,Overcast,340,2012-12-19 16:53:00
12:53 PM,39.9,30.0,68,29.75,10.0,NNW,9.2,19.6,N/A,,Overcast,340,2012-12-19 17:53:00
1:53 PM,41.0,30.0,65,29.77,10.0,North,11.5,17.3,N/A,,Overcast,350,2012-12-19 18:53:00
2:53 PM,39.9,28.9,65,29.81,10.0,NNW,10.4,18.4,N/A,,Overcast,330,2012-12-19 19:53:00
3:30 PM,39.2,28.4,65,29.81,10.0,NNW,10.4,-,N/A,,Overcast,330,2012-12-19 20:30:00
3:53 PM,39.0,28.9,67,29.86,10.0,NNW,8.1,-,N/A,,Overcast,330,2012-12-19 20:53:00
4:53 PM,37.9,28.9,70,29.89,10.0,North,9.2,17.3,N/A,,Overcast,350,2012-12-19 21:53:00
5:53 PM,37.9,28.9,70,29.92,10.0,NW,4.6,-,N/A,,Overcast,310,2012-12-19 22:53:00
6:53 PM,37.9,28.0,68,29.96,10.0,NNW,5.8,-,N/A,,Overcast,330,2012-12-19 23:53:00
7:00 PM,37.4,28.4,70,29.94,10.0,North,5.8,-,N/A,,Overcast,350,2012-12-20 00:00:00
7:45 PM,37.4,28.4,70,29.96,10.0,NNW,5.8,-,N/A,,Overcast,340,2012-12-20 00:45:00
7:53 PM,37.9,28.0,68,29.99,10.0,North,6.9,-,N/A,,Overcast,360,2012-12-20 00:53:00
8:04 PM,37.4,28.4,70,29.97,10.0,North,5.8,-,N/A,,Overcast,350,2012-12-20 01:04:00
8:53 PM,37.9,28.9,70,30.01,10.0,Calm,Calm,-,N/A,,Overcast,0,2012-12-20 01:53:00
9:53 PM,37.0,30.0,76,30.02,10.0,WNW,4.6,-,N/A,,Overcast,290,2012-12-20 02:53:00
10:40 PM,35.6,30.2,81,30.03,10.0,NW,4.6,-,N/A,,Overcast,320,2012-12-20 03:40:00
10:53 PM,37.0,30.0,76,30.05,10.0,NW,3.5,-,N/A,,Overcast,320,2012-12-20 03:53:00
11:01 PM,37.4,28.4,70,30.03,10.0,NW,4.6,-,N/A,,Overcast,310,2012-12-20 04:01:00
11:53 PM,36.0,28.9,76,30.07,10.0,Calm,Calm,-,N/A,,Overcast,0,2012-12-20 04:53:00